Regional Weather Roundup
Issued by NWS

Home | Current Version | Previous Version | Text Only | Print | Product List | Glossary Off
Versions: 1 2 3 4 5 6 7 8 9 10 11 12 13 14 15 16 17 18 19 20 21 22 23 24 25 26 27 28 29 30 31 32 33 34 35 36 37 38 39 40 41 42 43 44 45 46 47 48 49 50

000
ASUS45 KPSR 090510
RWRAZ

ARIZONA HOURLY REGIONAL WEATHER ROUNDUP
NATIONAL WEATHER SERVICE PHOENIX AZ
1000 PM MST MON FEB 08 2016

NOTE: FAIR INDICATES FEW OR NO CLOUDS BELOW 12,000 FEET WITH NO
SIGNIFICANT WEATHER AND/OR OBSTRUCTIONS TO VISIBILITY.

AZZ001>003-036-090600-
NORTHWEST ARIZONA

CITY           SKY/WX    TMP DP  RH WIND       PRES   REMARKS
BULLHEAD CITY  CLEAR     68  27  21 N26G32    30.21S
KINGMAN        CLEAR     48  24  39 E6        30.34S
$$

AZZ004>008-015-016-018-090600-
NORTH CENTRAL ARIZONA

CITY           SKY/WX    TMP DP  RH WIND       PRES   REMARKS
GRAND CANYON   CLEAR     27  20  75 NE6       30.49S WCI  20
WILLIAMS       CLEAR     30  21  69 SE6       30.50S WCI  24
PRESCOTT       CLEAR     41  21  44 SW3       30.37S
FLAGSTAFF      CLEAR     43  18  36 NE10      30.45F
PAYSON         CLEAR     52  18  25 CALM      30.37R
PAGE           CLEAR     38  24  57 CALM      30.47F
$$

AZZ009>014-017-090600-
NORTHEAST ARIZONA

CITY           SKY/WX    TMP DP  RH WIND       PRES   REMARKS
WINSLOW        CLEAR     40  22  48 NW5       30.44R
SAINT JOHNS    PTCLDY    38  21  50 SW3       30.42S
WINDOW ROCK    CLEAR     33   0  24 N3        30.45S
SHOW LOW       PTCLDY    36  18  48 CALM      30.46R
$$

AZZ023-090600-
GREATER PHOENIX AREA

CITY           SKY/WX    TMP DP  RH WIND       PRES   REMARKS
PHOENIX        CLEAR     65  30  27 E7        30.13R
BUCKEYE        CLEAR     59  28  31 N7        30.16R
LUKE AFB       CLEAR     62  29  28 N7        30.13R
DEER VALLEY    CLEAR     61  27  27 CALM      30.16R
SCOTTSDALE     CLEAR     71  18  13 N7        30.17R
MESA-GATEWAY   CLEAR     57  30  35 E7        30.16
$$

AZZ027-028-090600-
SOUTHWEST MARICOPA COUNTY AND PINAL COUNTY

CITY           SKY/WX    TMP DP  RH WIND       PRES   REMARKS
CASA GRANDE    CLEAR     61  23  23 N9        30.15S
GILA BEND      FAIR      55  28  36 SW5       30.12S
$$

AZZ503-504-507>509-090600-
SOUTHEAST ARIZONA

CITY           SKY/WX    TMP DP  RH WIND       PRES   REMARKS
TUCSON         CLEAR     61  19  19 SE3       30.20S
DAVIS-MONTHAN  CLEAR     58  20  23 SE3       30.18S
NOGALES        CLEAR     52  18  26 E10       30.23R
SIERRA VISTA   PTCLDY    50  17  27 E6        30.29R
DOUGLAS        CLEAR     50  18  28 E8        30.27S
SAFFORD        CLEAR     49  25  39 S9        30.25R
$$

AZZ020-021-025-026-031-090600-
SOUTHWEST ARIZONA

CITY           SKY/WX    TMP DP  RH WIND       PRES   REMARKS
YUMA           CLEAR     72  22  15 N12       30.13R
$$

CAZ031-033-041-043-047-048-061-090600-
SOUTHERN CALIFORNIA

CITY           SKY/WX    TMP DP  RH WIND       PRES   REMARKS
DOWNTOWN L.A.  CLEAR     68  35  29 CALM      30.11R
L.A. AIRPORT   CLEAR     73  28  18 CALM      30.12R
SAN DIEGO      CLEAR     68  34  28 N3        30.11R
BURBANK        CLEAR     68  22  17 CALM      30.14R
ONTARIO        PTCLDY    66  27  23 NW5       30.14R
RIVERSIDE      CLEAR     69  20  15 E5        30.17R
PALM SPRINGS   CLEAR     70  25  18 W8        30.22S
EL CENTRO NAS  CLEAR     57  22  25 W9        30.17R
IMPERIAL       CLEAR     57  27  31 W9        30.14R
BLYTHE         CLEAR     66  24  20 N13       30.17S
NEEDLES        CLEAR     68  26  20 N10       30.22R
$$

NVZ020-UTZ003-090600-
SOUTHERN NEVADA-UTAH

CITY           SKY/WX    TMP DP  RH WIND       PRES   REMARKS
LAS VEGAS      CLEAR     62  27  26 CALM      30.32R
SALT LAKE CITY PTCLDY    31  26  82 CALM      30.63S HAZE
$$

NMZ009-TXZ055-090600-
NEW MEXICO-WEST TEXAS

CITY           SKY/WX    TMP DP  RH WIND       PRES   REMARKS
ALBUQUERQUE    CLOUDY    44  23  43 N7        30.40R
EL PASO        PTCLDY    45  14  28 N3        30.36R
$$


........................KEY........................
SKY/WX - SKY CONDITION/WEATHER
TMP    - TEMPERATURE IN FAHRENHEIT
DP     - DEW POINT IN FAHRENHEIT
RH     - RELATIVE HUMIDITY IN PERCENT
WIND   - DIRECTION AND SPEED IN MILES PER HOUR (MPH)
VRB    - VARIABLE WIND DIRECTION
PRES   - MEAN SEA LEVEL PRESSURE IN INCHES OF MERCURY
         F - FALLING PRESSURE   R - RISING PRESSURE
         S - STEADY PRESSURE
VSB    - VISIBILITY IN MILES
HX     - HEAT INDEX IN FAHRENHEIT
WCI    - WIND CHILL INDEX IN FAHRENHEIT
TC     - TEMPERATURE IN CELSIUS WHICH IS ALSO KNOWN AS
         TEMPERATURE IN CENTIGRADE
AFB    - AIR FORCE BASE
         LUKE AFB IS LUKE AIR FORCE BASE
         DAVIS-MONTHAN IS DAVIS-MONTHAN AIR FORCE BASE
NAS    - NAVAL AIR STATION
         EL CENTRO NAS IS EL CENTRO NAVAL AIR STATION
N/A    - NOT AVAILABLE




USA.gov is the U.S. government's official web portal to all federal, state and local government web resources and services.